USA 176 (DSP 22)

Last updated on Tue Sep 22 2026 00:03:10 GMT+0000 (Coordinated Universal Time)

1 28158U 04004A 26264.36929988 -.00000043 00000+0 00000+0 0 9992 2 28158 12.1881 25.3333 0003624 286.4521 92.4208 0.98999310 33907
UTC large
Height (km)
Speed (km/s)
/
Latitude / Longitude
Inclination (degrees)
Orbital Period (minutes)
Azimuth
Elevation
Range (km)
Doppler Factor

Next 0 passes for location: London (51.5072 / 0.1276)

No passes found over London.
USA 176 (DSP 22)